Back to catalog

THORAD AGENA D R/B

AliveSSO
NORAD 3892·ROCKET BODY·🇺🇸 United States

Launched Apr 14, 1969 from Vandenberg Space Force Base

Loading…

Next Passes (next 24 hours)

TLE

FreshSource: Space-Track

Epoch: Sep 14, 2026, 06:10 UTC

1 03892U 69037C   26257.25726084  .00000001  00000-0  78751-4 0  9996
2 03892  99.8922 164.2978 0038593 208.8058 320.3935 13.42162354811386

Track THORAD AGENA D R/B in real time with AllMySat

Download on the App Store